Regional Weather Roundup
Issued by NWS State College, PA

Home | Current Version | Previous Version | Graphics & Text | Print | Product List | Glossary On
Versions: 1 2 3 4 5 6 7 8 9 10 11 12 13 14 15 16 17 18 19 20 21 22 23 24 25 26 27 28 29 30 31 32 33 34 35 36 37 38 39 40 41 42 43 44 45 46 47 48 49 50
101
ASUS41 KCTP 271110
RWRCTP

REGIONAL WEATHER ROUNDUP
NATIONAL WEATHER SERVICE STATE COLLEGE PA
700 AM EDT TUE SEP 27 2016

Note: "fair" indicates few or no clouds below 12,000 feet with no
significant weather and/or obstructions to visibility.

* = STATION THAT DOES NOT REPORT PRECIPITATION /E.G. RAIN...SNOW...ETC/
    THUNDER OR FOG.

PAZ002>004-007>009-013>016-020>023-029>032-271200-
WESTERN PENNSYLVANIA

CITY           SKY/WX    TMP DP  RH WIND       PRES   REMARKS
ERIE           CLEAR     54  46  74 S12       29.88R
MEADVILLE      CLEAR     48  46  93 S7        29.92S
FRANKLIN*        N/A     46  43  87 S8        29.95S
NEW CASTLE     FAIR      50  49  96 S6        29.96R
BEAVER COUNTY  CLEAR     50  48  93 SW7       29.96
BUTLER*        CLEAR     50  46  87 S6        29.99R
PITTSBURGH INT PTCLDY    53  51  93 SW7       29.97R
PITTSBURGH     CLEAR     52  49  89 S9        29.97S
INDIANA*       MOCLDY    54  54 100 SW9       30.00S FOG
LATROBE        PTCLDY    50  50 100 SW9       29.99S
WASHINGTON CO* CLEAR     48  46  93 SW3       29.99S
$$

PAZ004>006-010>012-017>019-024>028-033>037-041-042-045-046-049>053-271200-
CENTRAL PENNSYLVANIA

CITY           SKY/WX    TMP DP  RH WIND       PRES   REMARKS
BRADFORD       CLEAR     49  48  97 SW3       29.94S
DUBOIS         CLEAR     50  47  89 S5        29.95S
CLEARFIELD     CLOUDY    52  52 100 SW6       29.96F FOG
JOHNSTOWN      CLEAR     48  47  96 SW5       29.98S
ALTOONA        CLEAR     51  49  92 SW8       29.98S
STATE COLLEGE  CLEAR     50  48  93 SW3       29.96S
WILLIAMSPORT   CLOUDY    56  56 100 CALM      29.94R
SELINSGROVE    FOG       54  54 100 CALM      29.96R VSB 1/4
FT INDIANTOWN  MOCLDY    56  56  99 W2        29.95R
CAPITAL CITY   CLOUDY    60  58  92 W3        29.95S FOG
HARRISBURG     CLOUDY    59  59 100 NW5       29.94S FOG
YORK           FOG       59  59 100 CALM      29.95S VSB 1/4
$$

PAZ038>040-043-044-047-048-054-055-060>062-067>071-271200-
EASTERN PENNSYLVANIA

CITY           SKY/WX    TMP DP  RH WIND       PRES   REMARKS
SCRANTON       CLOUDY    59  58  96 W5        29.93R
MOUNT POCONO   CLOUDY    56  55  97 NW6       29.93F
ALLENTOWN      CLOUDY    60  57  89 SW3       29.93R FOG
QUAKERTOWN*    CLOUDY    59  59 100 CALM      29.94S
READING        CLOUDY    60  58  92 W3        29.93S
LANCASTER      CLOUDY    61  61 100 CALM      29.94F FOG
COATESVILLE    CLOUDY    61  61 100 NW6       29.96S FOG
POTTSTOWN      CLOUDY    60  60 100 CALM      29.95S FOG
BLUE BELL      MOCLDY    61  61 100 W3        29.93R
DOYLESTOWN     CLOUDY    63  62  97 W3        29.92S
WILLOW GROVE   NOT AVBL
NORTH PHILA    CLOUDY    66  63  90 W8        29.94R
PHILADELPHIA   CLOUDY    67  63  87 W9        29.94R
$$




USA.gov is the U.S. government's official web portal to all federal, state and local government web resources and services.